This is the latest recevied weather packets stored in our database for station/object DG8SF-13. If no packets are shown the sender has not sent any weather packets the latest 10 day(s).
| Time | Temp. | Humidity | Pressure | Rain* | Wind** | Luminosity | Snow |
|---|---|---|---|---|---|---|---|
| 1778163937 | 13.89° C | 73% | 1014.1 hPa | 0 mm | - | - | - |
| 1778163616 | 13.89° C | 75% | 1014.1 hPa | 0 mm | - | - | - |
| 1778163307 | 13.89° C | 72% | 1014 hPa | 0 mm | - | - | - |
| 1778162992 | 14.44° C | 73% | 1014 hPa | 0 mm | - | - | - |
| 1778162681 | 14.44° C | 74% | 1014 hPa | 0 mm | - | - | - |
| 1778162367 | 13.33° C | 76% | 1014 hPa | 0 mm | - | - | - |
| 1778162058 | 13.33° C | 78% | 1014 hPa | 0 mm | - | - | - |
| 1778161744 | 13.89° C | 82% | 1014 hPa | 0 mm | - | - | - |
| 1778161443 | 12.78° C | 86% | 1014.1 hPa | 0 mm | - | - | - |
| 1778161060 | 12.22° C | 87% | 1014.2 hPa | 0 mm | - | - | - |
| 1778160724 | 11.67° C | 86% | 1014.3 hPa | 0 mm | - | - | - |
| 1778160413 | 11.67° C | 86% | 1014.3 hPa | 0 mm | - | - | - |
| 1778160102 | 11.67° C | 88% | 1014.3 hPa | 0 mm | - | - | - |
| 1778159793 | 11.67° C | 88% | 1014.2 hPa | 0 mm | - | - | - |
| 1778159477 | 11.67° C | 87% | 1014.2 hPa | 0 mm | - | - | - |
| 1778159151 | 11.67° C | 87% | 1014.2 hPa | 0 mm | - | - | - |
| 1778158830 | 11.67° C | 86% | 1014.1 hPa | 0 mm | - | - | - |
| 1778158503 | 12.22° C | 83% | 1014.1 hPa | 0 mm | - | - | - |
| 1778158198 | 12.78° C | 80% | 1014 hPa | 0 mm | - | - | - |
| 1778157869 | 13.33° C | 76% | 1014 hPa | 0 mm | - | - | - |
| 1778157558 | 13.89° C | 77% | 1013.9 hPa | 0 mm | - | - | - |
| 1778157245 | 13.89° C | 74% | 1013.9 hPa | 0 mm | - | - | - |
| 1778156935 | 13.89° C | 73% | 1013.8 hPa | 0 mm | - | - | - |
| 1778156621 | 13.89° C | 76% | 1013.8 hPa | 0 mm | - | - | - |
| 1778156309 | 13.33° C | 78% | 1013.8 hPa | 0 mm | - | - | - |
* Rain latest hour (hover to see other rain measurements)
** Current wind speed in m/s (hover to see current wind gust speed)